Wind_Speed
6 2 9 14 15 19 22 25 33 35 32 32 37 39 38 35 32 30 30 30 29 25 21 25 27 30 34 34 39 34 29 32 33 33 35 36 37 37 36 30 32 37 35 34
7 2 13 12 16 17 18 26 31 31 28 28 32 36 35 34 37 36 34 32 31 29 29 26 27 29 35 36 40 38 33 35 36 33 36 33 36 37 35 37 40 35 26 33
6 8 12 14 18 16 21 27 27 26 26 26 31 38 36 36 36 37 35 35 36 35 30 30 30 30 32 38 41 41 38 37 39 35 36 36 40 39 38 36 35 33 35 28
3 13 13 15 16 15 28 25 28 28 27 31 23 25 28 24 23 22 26 31 37 35 35 34 31 32 34 37 39 41 40 37 42 38 38 41 44 45 43 39 35 35 37 35
12 16 12 15 14 22 31 26 29 34 34 30 31 21 27 20 26 27 27 28 28 29 34 33 34 33 32 35 40 41 39 38 42 41 40 43 45 44 43 41 39 37 41 39
22 11 6 11 19 22 20 29 35 37 34 23 35 28 26 10 20 10 7 9 10 12 24 29 31 30 33 37 44 43 40 40 43 44 43 43 45 45 45 44 43 41 41 42
15 8 9 9 32 19 23 24 16 16 13 9 5 8 32 23 27 25 14 13 15 12 10 12 17 28 30 39 46 42 40 41 43 44 44 43 43 44 45 44 43 41 41 41
16 19 16 22 23 20 24 13 10 9 13 18 18 6 13 27 25 26 12 21 20 17 16 23 24 26 26 35 44 42 41 41 45 44 47 44 40 44 44 46 44 42 39 36
20 19 38 28 13 17 14 15 18 22 29 24 11 18 5 36 33 32 20 19 25 30 25 26 32 37 35 30 42 48 42 42 44 44 47 46 40 42 44 46 45 43 38 37
23 43 32 19 21 15 13 15 12 12 6 7 9 13 24 39 39 37 35 23 22 31 40 34 36 35 41 35 33 50 43 38 43 44 44 45 44 40 42 43 43 45 42 39
31 23 28 24 17 18 13 12 11 16 13 5 6 12 25 33 32 33 34 31 24 22 28 30 32 34 42 41 39 38 46 40 44 45 45 44 41 41 40 43 41 44 44 42
24 26 29 27 22 12 10 11 12 13 14 19 13 10 26 28 31 30 32 29 20 8 14 21 22 27 39 47 49 24 43 42 38 45 43 43 42 42 41 41 43 41 45 45
23 14 23 20 13 14 17 15 11 16 14 11 7 12 26 27 31 29 33 33 33 18 6 7 17 25 30 40 52 47 33 42 36 41 45 42 40 43 40 38 42 42 45 44
21 19 23 19 22 22 15 18 20 22 16 11 22 24 33 31 36 33 31 32 32 39 33 24 10 22 24 30 40 48 38 40 41 40 42 46 42 42 42 38 36 42 44 43
23 25 25 22 17 10 12 23 20 24 22 19 23 23 35 29 30 32 30 31 33 39 43 39 15 20 23 27 33 44 41 43 40 40 42 40 39 42 44 44 42 38 38 41
27 24 23 23 19 7 20 18 20 20 23 20 19 25 32 27 29 31 32 30 32 35 39 41 29 17 24 29 31 36 39 38 37 43 62 53 39 40 42 46 43 43 42 34
24 22 19 16 8 13 29 22 14 20 24 24 26 27 31 31 29 36 36 31 32 32 40 41 38 27 18 19 27 32 34 34 36 37 48 63 42 35 41 45 46 44 46 51
20 19 11 14 10 13 15 18 9 19 22 22 23 27 29 30 25 31 37 35 31 33 37 38 34 34 29 21 16 25 35 38 38 29 32 39 36 35 36 41 44 47 46 47
14 16 12 12 12 5 23 24 20 17 17 24 25 28 31 29 25 32 39 36 35 31 29 35 33 30 32 25 20 22 25 33 33 36 38 35 34 28 35 38 41 44 46 48
14 10 14 13 11 8 19 22 19 13 20 26 26 28 31 33 36 37 37 40 37 34 31 28 32 28 26 28 22 19 25 32 33 30 33 35 31 30 31 38 40 44 44 45
17 11 9 12 8 9 17 21 17 17 20 24 24 26 29 32 31 31 30 31 30 32 32 29 26 27 27 28 25 31 18 25 26 26 33 41 32 34 30 29 33 35 37 40
13 10 10 8 10 5 16 17 18 15 18 21 23 25 29 29 29 30 28 28 28 29 32 31 29 26 29 30 30 23 26 18 18 19 21 36 34 38 31 35 33 34 36 41
5 6 7 4 7 10 11 14 16 18 21 23 24 25 27 29 30 30 30 28 26 25 25 23 29 28 26 23 21 24 22 22 22 18 19 18 36 26 39 36 33 41 32 35
7 7 7 10 6 13 12 15 18 21 22 24 24 25 25 26 28 30 28 29 28 25 23 23 20 21 26 26 23 22 24 21 21 18 19 14 14 18 25 30 35 39 33 35
10 11 8 10 9 15 13 19 23 24 25 27 25 25 26 28 28 27 29 26 27 27 26 21 20 20 17 19 22 22 20 20 19 20 19 17 11 12 15 27 29 36 38 43
11 14 11 14 15 15 20 22 24 28 30 30 29 29 27 27 28 28 29 28 25 25 26 23 21 21 19 15 16 18 22 21 20 17 17 17 17 21 11 7 13 24 32 36
Wind_Direction
1 246 318 311 304 303 298 290 284 280 277 273 268 266 262 263 260 251 252 251 245 244 244 235 232 229 221 218 238 234 225 223 218 218 218 213 216 219 221 226 220 206 202 200
288 348 332 326 323 308 299 299 292 289 281 274 272 268 266 262 260 258 253 247 248 250 243 238 231 231 222 220 235 238 228 224 222 220 221 217 217 222 218 209 221 219 204 201
355 330 339 330 328 307 302 301 298 294 292 280 275 274 269 266 263 258 252 250 249 246 245 238 232 231 225 222 228 237 236 220 223 218 218 214 216 220 219 212 213 210 197 213
312 332 333 334 326 314 310 307 291 291 289 278 275 288 276 272 265 261 261 257 254 250 246 240 233 232 233 226 225 232 237 224 219 215 218 216 218 217 221 219 219 207 213 212
323 320 319 334 318 320 306 307 287 283 275 273 269 254 267 263 261 257 262 260 256 258 249 243 239 233 232 234 227 229 235 229 216 215 215 221 219 221 222 223 221 213 215 218
330 297 315 328 327 322 313 316 302 276 253 246 253 247 255 326 12 355 332 313 298 283 260 250 242 235 233 235 239 232 229 232 214 216 214 220 225 221 221 221 223 220 215 217
334 310 286 312 330 330 329 333 320 295 203 227 330 249 44 26 12 4 317 243 212 205 204 228 245 239 234 233 243 247 228 229 217 215 217 222 224 224 223 221 224 221 220 221
338 321 329 308 317 314 314 321 317 308 316 307 296 339 39 21 12 0 304 261 246 240 223 199 205 211 219 236 247 248 228 222 220 213 219 222 222 224 223 222 222 225 223 222
320 295 307 314 287 312 301 307 303 271 276 274 314 44 359 7 4 359 334 257 250 250 250 224 211 196 198 209 239 250 230 221 214 221 217 220 221 224 222 224 220 224 224 222
312 304 312 305 287 289 303 306 322 314 285 307 79 53 2 4 3 2 353 319 279 252 242 244 234 205 198 198 208 243 231 222 217 219 222 223 222 223 224 225 225 222 222 224
321 303 307 307 304 316 310 320 318 295 259 291 323 61 17 18 10 5 5 351 318 282 261 261 250 228 206 202 194 232 234 218 223 212 221 223 222 221 222 224 225 224 224 223
323 309 298 304 302 271 337 323 331 317 300 309 294 74 16 18 16 8 14 5 356 303 258 252 251 239 218 208 198 212 232 224 221 214 216 221 220 218 225 219 223 222 225 225
321 309 310 318 327 352 344 343 355 328 293 18 21 25 7 15 17 16 15 14 8 41 67 208 235 235 223 215 215 203 222 226 230 211 213 218 221 224 217 224 224 221 222 224
345 320 325 328 318 320 349 43 35 36 21 341 23 9 6 14 14 13 13 19 2 18 47 61 176 220 226 217 213 212 207 223 222 218 216 215 215 224 221 217 230 228 221 221
340 325 316 314 303 305 52 45 40 41 30 28 17 13 7 12 12 7 17 19 8 13 25 46 160 208 208 205 204 204 207 213 218 218 224 228 217 218 221 220 212 227 228 223
333 325 318 302 306 162 54 44 48 45 35 30 16 14 4 8 7 11 18 19 19 8 16 37 82 139 194 197 192 198 206 215 209 216 224 233 231 218 218 222 221 218 223 234
343 334 322 302 335 52 32 13 51 50 37 28 22 2 1 12 3 7 15 21 18 10 19 25 43 87 124 180 192 195 201 208 214 206 214 221 233 225 217 219 223 222 221 224
349 352 340 314 322 56 33 19 115 69 36 27 17 4 5 6 356 358 11 17 11 17 14 19 32 46 75 101 130 181 201 212 203 199 216 217 215 216 218 218 221 223 223 226
8 1 353 350 76 98 18 7 354 341 33 17 8 0 352 1 358 3 4 7 13 12 11 15 20 35 42 65 114 156 175 189 201 209 211 212 219 216 215 211 215 220 222 226
14 6 15 21 55 41 7 356 354 334 43 6 357 353 346 355 359 356 357 354 3 14 12 13 14 15 27 35 58 117 163 183 192 209 215 211 214 216 215 212 213 219 221 223
10 7 1 4 2 64 10 355 359 21 344 346 348 342 340 347 343 339 345 348 352 355 0 7 21 19 18 24 38 41 92 156 159 181 203 209 218 212 209 205 210 212 214 219
357 340 3 337 347 342 354 350 9 348 337 336 336 333 330 332 331 330 334 339 341 349 351 358 5 13 18 24 17 19 38 66 128 149 180 205 197 209 212 208 204 209 212 222
341 349 327 340 344 333 325 343 341 339 336 335 333 331 326 325 323 324 324 327 327 334 339 346 349 356 1 10 28 27 26 33 23 78 158 159 197 191 203 219 198 216 208 205
292 305 294 310 302 326 322 325 331 333 334 333 331 331 330 326 323 322 322 321 322 320 323 328 338 342 347 349 357 16 23 29 24 12 45 81 145 158 187 195 201 208 197 204
286 288 298 293 288 320 314 322 324 328 329 328 330 332 330 326 325 322 319 318 316 316 309 302 310 319 327 333 341 347 358 6 19 19 14 25 51 44 160 187 189 201 197 204
283 276 273 295 308 310 314 321 324 325 327 328 327 329 330 328 324 321 319 317 313 302 309 308 290 294 296 304 312 319 340 350 353 4 15 14 18 350 20 57 183 187 197 205
Height
3070 3071 3070 3067 3064 3061 3057 3055 3049 3045 3045 3043 3039 3036 3036 3037 3037 3037 3039 3041 3043 3044 3048 3051 3053 3055 3058 3058 3057 3060 3067 3070 3073 3077 3079 3084 3088 3091 3096 3096 3100 3106 3110 3116
3070 3067 3064 3062 3060 3057 3055 3051 3045 3039 3038 3036 3031 3027 3028 3029 3026 3029 3031 3032 3034 3037 3039 3043 3047 3048 3049 3051 3050 3054 3059 3063 3067 3073 3076 3081 3085 3088 3094 3097 3096 3102 3105 3113
3068 3066 3060 3059 3057 3053 3052 3048 3041 3037 3031 3029 3027 3020 3019 3018 3018 3018 3020 3021 3025 3027 3031 3035 3039 3042 3043 3043 3043 3047 3052 3056 3061 3067 3072 3076 3079 3083 3086 3091 3092 3097 3105 3110
3066 3062 3058 3056 3054 3051 3044 3043 3037 3032 3029 3021 3022 3008 3008 3009 3009 3010 3010 3012 3013 3016 3020 3024 3030 3035 3037 3038 3039 3039 3044 3050 3054 3061 3066 3068 3072 3075 3081 3086 3092 3099 3103 3108
3067 3060 3057 3055 3051 3047 3041 3035 3029 3023 3019 3016 3011 3012 3003 3005 3004 3005 3007 3008 3008 3010 3011 3015 3020 3026 3032 3032 3032 3034 3037 3043 3048 3054 3058 3062 3067 3072 3077 3082 3087 3093 3098 3103
3063 3057 3055 3052 3047 3043 3037 3028 3016 3003 3003 3002 2996 3001 2997 2998 2996 2989 2987 2988 2991 2994 3004 3008 3012 3019 3024 3025 3024 3026 3031 3035 3042 3047 3051 3057 3062 3066 3070 3075 3080 3086 3092 3095
3059 3056 3052 3048 3041 3037 3034 3026 3009 2987 2979 2981 2989 2987 3000 2993 2991 2989 2983 2983 2982 2986 2985 2991 3001 3013 3017 3017 3014 3020 3023 3027 3034 3041 3046 3051 3056 3061 3065 3071 3075 3081 3086 3092
3060 3051 3048 3046 3044 3037 3031 3030 3025 3011 2987 2985 2990 2984 2995 2990 2992 2989 2981 2980 2979 2980 2979 2977 2983 2992 3003 3015 3007 3012 3016 3019 3025 3033 3040 3045 3050 3055 3060 3065 3071 3075 3082 3090
3061 3050 3046 3042 3039 3036 3030 3027 3025 3018 3004 2989 2981 2989 2985 2983 2982 2980 2975 2975 2976 2978 2978 2977 2975 2978 2983 2994 3004 3001 3010 3013 3017 3024 3032 3038 3043 3049 3054 3058 3065 3071 3078 3084
3062 3047 3044 3037 3035 3031 3028 3025 3021 3014 3001 2986 2989 2996 3003 2989 2987 2982 2976 2973 2972 2972 2973 2974 2974 2975 2978 2981 2991 2992 3002 3005 3011 3019 3025 3030 3036 3043 3049 3052 3059 3065 3071 3076
3057 3048 3039 3034 3029 3028 3026 3021 3021 3018 3011 2997 2988 3008 3009 3002 2995 2989 2985 2978 2973 2971 2968 2968 2968 2971 2973 2976 2979 2984 2991 2996 3003 3010 3018 3023 3028 3035 3042 3046 3053 3059 3065 3070
3054 3047 3037 3032 3025 3026 3024 3022 3020 3017 3007 3002 3000 3011 3008 3003 2998 2995 2986 2981 2975 2966 2962 2961 2961 2962 2964 2969 2972 2976 2982 2987 2991 3002 3009 3015 3021 3027 3034 3038 3045 3052 3058 3063
3051 3044 3037 3027 3022 3019 3023 3021 3018 3014 3009 3007 2999 3008 3008 3004 2997 2992 2985 2980 2975 2961 2956 2954 2954 2955 2956 2960 2966 2969 2971 2981 2985 2992 2999 3006 3013 3020 3027 3032 3040 3044 3050 3055
3053 3046 3042 3037 3033 3029 3024 3021 3018 3016 3015 3012 3013 3012 3005 3000 2996 2991 2986 2980 2976 2965 2953 2947 2944 2946 2949 2951 2956 2964 2967 2975 2981 2987 2990 2996 3005 3013 3019 3025 3033 3038 3044 3048
3053 3047 3041 3036 3032 3031 3027 3022 3022 3020 3021 3017 3019 3014 3009 3005 3000 2994 2988 2980 2974 2966 2956 2942 2935 2939 2942 2945 2948 2955 2960 2965 2973 2977 2984 2990 2997 3004 3011 3017 3024 3032 3037 3041
3050 3044 3039 3033 3029 3026 3024 3026 3025 3026 3025 3022 3020 3016 3012 3007 3002 2994 2987 2979 2972 2968 2957 2941 2927 2932 2936 2939 2943 2948 2954 2959 2966 2972 2979 2986 2991 2994 3001 3008 3014 3021 3029 3036
3047 3042 3036 3032 3027 3025 3027 3031 3030 3029 3027 3025 3020 3020 3013 3006 3000 2993 2986 2978 2972 2969 2950 2943 2936 2928 2931 2934 2937 2942 2948 2954 2959 2965 2970 2976 2984 2988 2993 2999 3005 3014 3020 3026
3048 3042 3037 3031 3028 3029 3038 3035 3031 3030 3030 3027 3025 3020 3015 3009 3004 2997 2988 2980 2971 2963 2953 2946 2946 2938 2927 2930 2931 2935 2940 2945 2952 2957 2963 2970 2975 2982 2985 2990 2996 3004 3010 3017
3049 3043 3038 3036 3032 3037 3037 3036 3033 3031 3030 3027 3024 3020 3014 3009 3006 2998 2990 2986 2979 2969 2965 2957 2944 2938 2942 2931 2929 2932 2935 2938 2945 2954 2958 2965 2969 2972 2977 2981 2987 2994 3000 3005
3051 3047 3044 3041 3038 3039 3042 3037 3033 3029 3025 3026 3024 3020 3014 3006 2999 2996 2990 2985 2979 2972 2966 2963 2955 2947 2941 2939 2935 2929 2930 2934 2936 2943 2950 2953 2960 2965 2970 2974 2979 2985 2990 2996
3054 3049 3046 3043 3040 3042 3041 3038 3034 3032 3036 3029 3025 3020 3015 3011 3007 3001 2997 2990 2985 2981 2972 2964 2961 2958 2961 2947 2938 2928 2929 2928 2932 2938 2941 2947 2951 2959 2962 2966 2972 2977 2983 2987
3057 3052 3049 3045 3044 3042 3041 3040 3038 3038 3033 3030 3026 3021 3015 3011 3006 3000 2995 2991 2985 2978 2972 2969 2964 2955 2946 2943 2946 2940 2931 2932 2928 2934 2937 2941 2943 2951 2954 2960 2965 2971 2975 2980
3059 3057 3054 3052 3048 3045 3043 3040 3038 3035 3032 3028 3023 3018 3013 3007 3003 2998 2993 2988 2983 2980 2977 2972 2964 2960 2959 2958 2954 2952 2945 2932 2936 2929 2933 2936 2941 2943 2949 2952 2956 2964 2968 2973
3057 3054 3052 3050 3047 3044 3041 3038 3035 3032 3028 3025 3021 3016 3010 3005 2999 2995 2991 2985 2980 2976 2971 2967 2965 2964 2959 2956 2952 2944 2940 2942 2944 2939 2935 2933 2932 2939 2940 2945 2949 2959 2959 2964
3057 3053 3050 3047 3045 3041 3039 3035 3032 3028 3025 3020 3017 3013 3008 3001 2994 2990 2985 2984 2980 2975 2969 2966 2967 2964 2961 2957 2954 2952 2950 2948 2940 2936 2929 2934 2934 2935 2939 2942 2944 2949 2952 2957
3053 3050 3049 3045 3042 3039 3036 3032 3028 3023 3019 3014 3010 3007 3005 2999 2992 2986 2981 2977 2974 2971 2967 2962 2959 2959 2958 2958 2956 2954 2949 2944 2945 2941 2940 2938 2933 2950 2938 2938 2939 2942 2945 2948